sat.trackr.live / text

‹ back to catalog

STARLINK-32901

NORAD 62895 · 2025-024S

PAYLOAD ACTIVE UNKNOWN

§ Identity

Operator
Country
US
Launch date
2025-02-04
Launch site
AFETR
Launch vehicle
Mass (kg)
RCS (m²)

Purposes: comms

External: N2YO · Heavens-Above · Gunter

§ Orbital elements

Epoch: 2026-09-21T10:24:13.175712Z

Period
94.27 min
Inclination
43.0040°
Eccentricity
0.0001581
Mean motion
15.27606007 rev/d
Perigee alt
481.9 km
Apogee alt
484.1 km
Semi-major
6,861.1 km
B*
5.3409e-4
RAAN
299.7985°
Arg perigee
254.1617°
Mean anomaly
105.9061°
Rev number
9,220

§ Raw data

STARLINK-329011 62895U 25024S   26264.43348583  .00014475  00000+0  53409-3 0  99952 62895  43.0040 299.7985 0001581 254.1617 105.9061 15.27606007 92202

JSON: /api/v1/satellites/62895 · /tle

For live sub-satellite position, see the globe view (requires WebGL).

§ Visibility from observer

Set your observer location to see the next 7 days of passes ≥ 10°. The values pass through the URL so the page stays shareable.

No JS? Fill the form by hand. The geolocation button needs JavaScript.